Regional Weather Roundup
Issued by NWS

Home | Current Version | Previous Version | Text Only | Print | Product List | Glossary Off
Versions: 1 2 3 4 5 6 7 8 9 10 11 12 13 14 15 16 17 18 19 20 21 22 23 24 25 26 27 28 29 30 31 32 33 34 35 36 37 38 39 40 41 42 43 44 45 46 47 48 49 50

000
ASUS43 KIND 031259
RWRIN

WEATHER ROUNDUP FOR INDIANA
NATIONAL WEATHER SERVICE INDIANAPOLIS IN
900 AM EDT MON AUG 03 2015

NOTE: "FAIR" INDICATES FEW OR NO CLOUDS BELOW 12,000 FEET WITH NO
SIGNIFICANT WEATHER AND/OR OBSTRUCTIONS TO VISIBILITY.

* - STATION DOES NOT REPORT WEATHER SUCH AS PRECIPITATION OR FOG.

+ - STATION NOT QUALITY CONTROLLED BY THE NATIONAL WEATHER SERVICE.
    USE DATA WITH CAUTION...ESPECIALLY DEWPOINT AND RELATIVE
    HUMIDITY OBSERVATIONS.

INZ001>003-010>013-019-020-031400-
NORTHWEST INDIANA

CITY           SKY/WX    TMP DP  RH WIND       PRES   REMARKS
GARY /AIRPORT/ MOSUNNY   73  66  78 W6        29.83R
RENSSELAER +   SUNNY     70  68  94 CALM      29.83R

$$

LMZ046-743>745-031400-
SOUTHERN LAKE MICHIGAN

STATION/POSITION TIME  TEMP    WIND        PRES    WAVE
                       AIR SEA DIR/SP/G            HT
                 (UTC) (F)     (DEG/KT/KT) (MB)    (FT)
BURNS HARBOR     1200   71     180/  3/  7 1010.2R
MICHIGAN CITY    1200   72     260/  7/  9   N/A
5NW MICH CITY    1200   72 73  290/  8/ 10   N/A     2

$$

INZ004-005-014>016-021>024-031400-
NORTH CENTRAL INDIANA

CITY           SKY/WX    TMP DP  RH WIND       PRES   REMARKS
ELKHART        CLOUDY    66  66 100 W6        29.83R FOG
GOSHEN         CLOUDY    66  64  93 W7        29.82R
SOUTH BEND     FOG       66  65  96 W3        29.83S VSB 3/4
WARSAW +       SUNNY     66  63  88 CALM      29.83R

$$

INZ006>009-017-018-025>027-031400-
NORTHEAST INDIANA

CITY           SKY/WX    TMP DP  RH WIND       PRES   REMARKS
ANGOLA *+      SUNNY     68  61  77 W6        29.82R
FORT WAYNE     MOSUNNY   68  64  87 SW10      29.83S

$$

INZ028-029-035-036-043>045-051>053-031400-
WEST CENTRAL INDIANA

CITY           SKY/WX    TMP DP  RH WIND       PRES   REMARKS
CRAWFORDSVL +  SUNNY     73  70  91 SW5         N/A
GREENCASTLE +  SUNNY     73  68  83 CALM      29.85S
LAFAYETTE      SUNNY     73  69  87 SW3       29.81R
TERRE HAUTE    SUNNY     77  70  79 W7        29.85R

$$

INZ030>032-037>040-046>048-054>057-064-065-031400-
CENTRAL INDIANA

CITY           SKY/WX    TMP DP  RH WIND       PRES   REMARKS
COLUMBUS       MOSUNNY   73  63  68 S14G21    29.89R
GREENWOOD *+   MOSUNNY   73  63  68 S8        29.87R
INDIANAPOLIS   MOSUNNY   75  67  76 S12       29.83R
-EAGLE CREEK   MOSUNNY   73  68  84 S6        29.84R
KOKOMO *+      SUNNY     72  64  78 S8        29.83S
MT COMFORT *+  CLOUDY    68 N/A N/A S5        29.87R
SHELBYVILLE    PTSUNNY   71  64  78 S10       29.86R

$$

INZ033-034-041-042-049-050-058-059-031400-
EAST CENTRAL INDIANA

CITY           SKY/WX    TMP DP  RH WIND       PRES   REMARKS
MUNCIE         PTSUNNY   66  63  90 S10       29.85R

$$

INZ060-061-067>069-081>083-085>088-031400-
SOUTHWEST INDIANA

CITY           SKY/WX    TMP DP  RH WIND       PRES   REMARKS
EVANSVILLE     SUNNY     79  70  74 W10       29.88R
HUNTINGBURG *+ SUNNY     75  66  73 SW7       29.88R

$$

INZ062-063-066-070>080-084-089>092-031400-
SOUTH CENTRAL AND SOUTHEAST INDIANA

CITY           SKY/WX    TMP DP  RH WIND       PRES   REMARKS
BLOOMINGTON    SUNNY     77  70  79 SW7       29.87R
MADISON *+     PTSUNNY   70  59  68 SE8       29.93F
SEYMOUR +      CLOUDY    73  63  68 SE13G18   29.90R

$$



USA.gov is the U.S. government's official web portal to all federal, state and local government web resources and services.